This is the latest recevied weather packets stored in our database for station/object KQ4PPF. If no packets are shown the sender has not sent any weather packets the latest 10 day(s).
| Time | Temp. | Humidity | Pressure | Rain* | Wind** | Luminosity | Snow |
|---|---|---|---|---|---|---|---|
| 1778076963 | 17.78° C | 99% | 1014 hPa | 0 mm | - | 7 W/m² | - |
| 1778076662 | 17.78° C | 99% | 1014.2 hPa | 0 mm | - | 8 W/m² | - |
| 1778076359 | 17.78° C | 99% | 1014 hPa | 0 mm | - | 12 W/m² | - |
| 1778076056 | 17.78° C | 99% | 1014.2 hPa | 0 mm | - | 2 W/m² | - |
| 1778075753 | 17.78° C | 98% | 1013.9 hPa | 0 mm | - | 4 W/m² | - |
| 1778075449 | 17.78° C | 98% | 1013.9 hPa | 0 mm | - | 5 W/m² | - |
| 1778075146 | 17.78° C | 98% | 1013.5 hPa | 0 mm | - | 6 W/m² | - |
| 1778074842 | 17.78° C | 98% | 1013.4 hPa | 0 mm | - | 16 W/m² | - |
| 1778074539 | 17.78° C | 98% | 1013.4 hPa | 0 mm | - | 16 W/m² | - |
| 1778074236 | 17.78° C | 98% | 1012.9 hPa | 0 mm | - | 22 W/m² | - |
| 1778073933 | 17.78° C | 98% | 1013.1 hPa | 0 mm | - | 17 W/m² | - |
| 1778073630 | 17.78° C | 98% | 1013 hPa | 0 mm | - | 10 W/m² | - |
| 1778073327 | 17.78° C | 98% | 1012.6 hPa | 0 mm | - | 10 W/m² | - |
| 1778073024 | 17.78° C | 97% | 1012.6 hPa | 0 mm | - | 12 W/m² | - |
| 1778072721 | 17.78° C | 97% | 1012.8 hPa | 0 mm | - | 6 W/m² | - |
| 1778072418 | 17.78° C | 97% | 1012.8 hPa | 0 mm | - | 1 W/m² | - |
| 1778072116 | 17.78° C | 97% | 1012.7 hPa | 0 mm | - | 2 W/m² | - |
| 1778071814 | 17.78° C | 96% | 1012.4 hPa | 0 mm | - | 4 W/m² | - |
| 1778071511 | 17.78° C | 96% | 1011.9 hPa | 0 mm | - | 6 W/m² | - |
| 1778071209 | 18.33° C | 95% | 1012.2 hPa | 0 mm | - | 2 W/m² | - |
| 1778070907 | 18.33° C | 95% | 1012.3 hPa | 0 mm | - | 0 W/m² | - |
| 1778070604 | 17.78° C | 95% | 1011.7 hPa | 0 mm | - | 4 W/m² | - |
| 1778070301 | 17.78° C | 95% | 1011.8 hPa | 0 mm | - | 6 W/m² | - |
| 1778069999 | 17.78° C | 95% | 1011.8 hPa | 0 mm | - | 3 W/m² | - |
| 1778069696 | 17.78° C | 95% | 1011.8 hPa | 0 mm | - | 1 W/m² | - |
* Rain latest hour (hover to see other rain measurements)
** Current wind speed in m/s (hover to see current wind gust speed)